Cloud_Cover
5 5 5 5 28 32 46 100 79 100 100 100 100 100 100 100 100 100 100 100 100 100 100 99 98 100 100 100 100 100 97 78 100 64 5 8 100 100 49 6 5 5 5 2 0
5 5 18 5 1 15 27 19 100 100 91 96 100 100 100 100 97 100 100 100 100 100 78 79 82 100 100 100 100 100 40 37 92 5 4 100 100 100 64 10 10 5 8 5 2
25 59 30 5 4 5 16 17 16 58 19 100 100 100 100 99 100 100 100 100 98 35 88 65 50 100 100 100 100 100 100 73 5 5 5 68 100 88 80 96 67 63 9 12 5
30 40 26 5 5 5 9 22 5 32 91 77 99 100 100 100 100 100 100 100 100 97 36 100 100 93 84 84 100 100 100 99 20 8 25 21 10 5 9 50 6 78 41 4 1
95 56 10 5 5 5 4 21 13 5 5 5 45 100 100 100 100 99 96 100 97 98 15 89 83 33 18 76 100 100 100 86 100 64 11 66 93 29 5 10 5 6 5 5 5
100 31 19 5 5 5 2 0 0 3 80 82 88 90 81 88 90 100 100 100 99 88 99 100 98 91 77 100 100 84 97 100 100 99 99 100 92 34 7 5 14 5 5 5 5
100 98 77 36 14 66 5 0 0 0 0 33 100 68 62 100 100 100 100 100 100 100 100 71 8 34 27 55 97 86 100 100 99 100 74 100 93 68 80 48 73 55 5 5 5
100 100 80 45 100 100 75 46 1 3 0 7 97 100 100 100 100 100 100 100 75 95 62 89 85 72 69 49 34 21 51 23 88 44 5 5 74 95 100 100 100 100 5 5 4
95 100 100 100 56 100 100 100 28 40 38 4 58 62 100 100 100 100 100 100 100 100 100 93 35 21 14 26 13 32 22 7 5 2 5 5 80 100 100 100 100 100 6 3 0
100 100 95 100 100 100 100 100 99 98 77 10 59 12 5 5 10 9 91 100 63 38 15 1 0 0 20 17 100 79 4 5 4 4 4 5 16 54 63 49 98 100 6 0 0
100 99 98 100 100 100 100 100 100 100 13 60 90 25 5 5 5 5 4 5 1 0 0 0 0 1 5 93 80 5 3 5 7 28 5 3 100 5 74 8 98 5 0 0 0
100 100 100 92 100 100 100 100 100 100 100 94 83 25 96 67 62 8 5 5 5 2 4 0 0 13 91 100 81 0 5 5 5 5 5 5 41 4 1 0 0 0 0 0 0
100 100 100 100 95 90 98 100 100 100 100 100 60 90 77 100 100 100 17 5 5 6 5 0 0 5 2 4 2 4 5 5 0 43 58 5 4 4 2 0 0 4 5 0 0
100 100 100 100 100 100 99 89 100 100 100 100 100 27 100 100 100 100 100 74 6 4 98 92 39 5 5 5 5 4 5 5 5 55 91 0 10 5 4 14 5 14 24 4 0
100 100 100 100 98 100 100 99 93 100 58 100 100 100 100 100 100 100 100 100 97 25 12 78 64 52 15 8 5 21 0 2 0 0 50 0 25 17 5 5 88 72 26 5 5
100 100 100 100 100 100 100 100 100 58 98 100 100 100 100 100 100 100 100 100 100 59 98 59 100 77 45 31 59 20 5 78 5 5 99 29 98 51 37 1 4 5 9 5 5
100 100 100 100 100 100 100 100 98 10 63 100 100 100 100 100 100 100 100 100 100 100 100 32 86 58 43 100 81 96 23 12 98 35 29 71 100 100 5 0 5 5 3 35 13
100 100 100 100 100 100 100 100 34 53 100 100 100 100 100 100 100 100 100 100 100 100 100 100 99 64 13 100 91 100 97 44 74 37 6 8 47 58 5 1 2 0 0 5 5
100 100 100 100 100 100 100 100 100 100 98 88 100 100 100 100 99 100 100 100 100 77 100 100 95 79 44 55 53 61 87 17 63 81 52 100 18 0 0 0 1 2 0 4 5
100 100 100 100 100 100 100 100 100 79 99 82 100 100 100 100 100 100 100 100 100 100 100 100 100 100 100 39 97 58 85 61 78 100 100 100 85 1 32 10 5 5 5 5 7
100 100 100 100 100 100 100 100 100 100 100 100 100 100 98 100 100 100 100 100 100 100 100 100 100 100 100 100 97 58 97 100 100 90 100 100 93 0 12 26 90 56 18 42 29
100 100 100 100 100 100 100 100 100 100 100 100 100 100 100 100 100 100 100 100 100 100 98 100 100 100 100 100 100 86 100 37 63 99 100 93 100 0 62 28 99 100 92 73 57
100 100 100 100 100 100 100 100 100 100 100 100 100 100 100 100 100 100 100 100 100 100 100 100 100 85 100 100 100 100 24 27 81 100 100 95 100 5 5 76 40 100 100 100 34
100 100 100 100 100 100 100 100 100 100 100 100 100 100 100 100 99 100 100 100 100 100 100 100 100 98 93 100 100 100 100 91 100 100 99 97 14 10 2 29 94 100 100 100 100
100 100 100 100 100 100 100 100 100 100 100 100 100 100 100 100 100 100 100 100 100 100 100 100 100 100 100 87 67 96 100 86 100 100 88 100 28 99 2 3 18 99 99 99 90
100 100 100 95 100 100 100 100 100 100 100 100 100 100 100 100 100 100 100 100 100 100 100 100 100 100 100 14 9 48 81 100 100 37 7 46 27 100 5 98 45 50 99 5 10
100 100 100 84 96 100 100 100 100 100 100 100 100 100 100 100 100 100 100 100 100 100 100 100 72 99 100 100 100 44 100 100 100 100 98 18 4 100 5 5 5 90 58 99 20